Theta_e
332 332 331 324 325 323 320 318 304 310 306 296 295 296 293 301 302 300 300 303 300 304 306 306 304 306 303 301 304 304 305 302 303 297 299 317 328 336 340 337 338 341 344 348 349 350 351 351 353 354 353 353 352 352 351 351 350 349 349 348 348 347 348 348 348 347 347 347 347 347 348 349 349 349 349 350 350 348 348 347 347 346 346 346 346 346 346 347 345 344 342 340 338 337 335 334 334
325 322 324 326 324 324 317 318 306 300 302 293 293 295 296 300 301 299 299 301 301 304 305 304 305 305 307 307 305 306 306 308 310 310 319 328 330 331 337 338 338 341 343 347 349 350 351 351 350 353 353 352 352 352 351 351 350 350 349 348 348 347 348 348 347 347 347 346 347 348 347 348 348 348 348 349 349 349 348 347 347 346 346 346 346 346 346 346 344 343 342 340 337 335 335 333 333
321 322 323 324 322 319 316 315 301 299 294 289 292 294 299 297 297 299 301 302 304 305 306 305 306 307 306 306 305 304 300 312 313 317 318 328 325 326 333 338 336 344 345 347 347 348 349 349 347 353 353 352 351 352 351 351 350 350 349 348 348 348 348 348 347 346 346 346 347 347 347 347 347 347 347 348 349 349 348 348 347 345 345 345 346 346 345 345 345 343 341 339 337 335 334 332 332
327 326 323 319 316 319 311 307 303 298 295 291 291 299 298 297 298 300 302 304 303 305 306 305 303 306 305 303 305 308 305 310 313 315 318 323 326 330 334 338 334 337 343 346 346 347 348 347 348 353 352 351 351 351 351 350 350 349 349 348 348 348 348 347 346 346 346 346 347 347 347 346 347 347 347 347 348 347 348 347 346 346 346 346 346 346 345 345 344 342 339 338 336 333 332 331 330
325 328 325 319 319 313 310 307 300 298 292 294 291 297 298 299 299 301 302 303 304 302 304 305 303 306 307 305 308 302 302 311 316 323 324 329 333 333 335 338 336 339 343 344 344 346 350 346 348 351 352 352 351 350 351 350 350 349 349 349 348 348 348 347 346 346 346 346 346 346 346 346 346 347 347 347 347 346 346 345 345 345 345 345 344 345 345 344 343 340 338 337 335 333 331 329 329
328 323 330 324 312 315 310 299 299 295 297 299 294 296 299 300 301 302 302 303 303 302 304 304 302 304 303 306 310 304 312 303 313 323 327 328 333 337 339 334 334 337 342 344 343 350 349 345 348 351 352 351 351 351 350 350 349 349 349 349 349 348 348 347 346 346 345 346 346 346 345 346 345 345 347 347 347 345 344 344 345 344 344 343 343 344 344 344 342 340 338 336 334 332 330 329 330
322 317 322 322 319 315 306 300 296 296 297 300 297 298 299 300 301 302 301 302 303 302 304 303 305 304 302 307 309 314 320 319 316 325 330 332 334 337 339 336 337 337 341 342 351 350 348 345 351 353 351 351 351 350 349 350 349 349 349 349 349 348 348 347 346 345 345 346 346 345 346 346 346 346 346 347 346 345 345 344 343 343 343 343 343 344 344 344 343 340 337 335 333 331 328 328 330
326 317 318 309 308 304 300 299 297 297 297 302 301 300 301 302 304 303 301 302 300 300 303 305 303 302 301 308 302 313 322 325 326 329 331 331 334 335 337 338 334 336 340 346 349 347 345 345 350 351 352 350 350 349 349 349 348 349 350 349 348 348 348 347 346 345 345 346 345 346 347 346 347 346 346 346 346 346 345 345 344 343 343 343 343 343 343 341 339 338 336 334 331 329 328 329 332
322 316 320 311 304 305 298 297 296 299 299 301 301 304 308 304 304 303 300 301 302 303 303 303 302 299 300 305 302 307 314 323 323 327 332 333 333 334 335 337 338 340 342 346 348 347 346 341 346 350 350 350 350 349 349 349 348 349 349 349 348 348 348 346 346 346 346 346 346 346 346 346 346 346 345 345 344 344 345 343 342 343 343 343 341 340 339 339 338 336 334 333 330 328 327 329 331
314 313 305 308 307 299 298 296 295 298 299 301 300 301 302 303 303 303 302 301 302 303 303 305 302 299 301 301 302 305 308 315 320 323 328 333 333 333 333 335 337 340 339 342 348 348 345 342 341 346 348 350 350 349 349 348 348 349 349 349 348 348 347 347 346 346 347 346 346 347 346 345 346 345 345 344 344 343 343 342 342 342 342 341 340 340 339 337 336 335 332 330 328 327 327 328 330
309 314 313 304 300 296 298 295 297 299 299 301 301 303 303 303 304 302 302 301 305 302 302 304 303 300 301 303 302 310 309 311 316 319 325 332 333 332 332 335 336 338 340 341 343 345 344 343 338 339 344 347 347 348 348 348 348 346 350 349 349 349 348 347 347 346 346 346 347 347 346 345 345 345 345 344 343 343 343 342 342 341 341 340 339 338 338 336 335 334 331 328 327 326 325 327 329
307 306 308 299 298 298 296 296 297 298 300 299 299 303 302 303 304 302 302 301 302 302 301 303 301 303 301 302 303 305 308 308 310 319 326 330 332 333 333 332 335 335 337 337 339 340 345 343 342 338 337 341 343 346 346 346 347 347 347 349 349 349 347 347 347 347 346 346 346 346 346 345 345 345 345 344 343 343 342 342 342 341 340 339 338 338 337 335 334 333 330 327 324 322 322 324 326
310 307 300 297 297 295 297 297 297 297 298 298 299 302 303 303 302 302 302 302 302 302 301 304 304 305 300 302 304 307 306 307 309 318 326 325 329 332 334 333 333 334 335 335 337 337 339 344 344 344 337 331 336 339 340 343 345 346 346 346 349 349 348 348 348 347 347 346 346 345 346 345 344 344 343 343 343 342 342 341 341 340 340 339 338 337 336 334 333 331 329 325 321 319 319 321 324
313 308 305 300 302 297 296 297 296 295 295 299 300 302 304 303 302 302 301 301 301 300 304 306 306 302 302 303 303 303 304 309 309 317 324 328 329 329 332 332 332 331 332 334 334 335 334 337 344 344 342 343 345 336 334 338 341 345 345 345 345 346 347 347 347 346 347 345 344 343 341 341 342 344 343 342 342 341 340 340 341 340 339 338 337 336 335 334 332 330 328 324 320 318 317 319 321
312 307 305 301 296 295 300 295 296 295 295 299 302 302 302 304 304 303 302 300 301 305 305 306 307 304 297 300 301 304 305 309 311 318 324 327 326 327 331 331 331 330 329 332 333 333 333 334 335 342 344 344 344 344 344 339 336 339 341 341 341 344 345 343 343 343 341 340 339 338 337 335 334 335 336 337 339 336 335 333 338 339 338 337 336 336 335 333 331 330 327 324 320 318 317 316 317
314 306 306 299 295 293 297 296 298 297 295 300 303 303 302 303 305 303 303 304 305 309 307 301 306 301 303 303 303 306 307 310 312 318 320 325 325 325 327 326 328 329 329 330 332 332 334 334 335 335 339 344 342 344 344 344 333 333 337 339 339 340 340 340 340 339 334 330 330 331 329 328 327 329 328 333 332 334 332 332 334 338 337 336 335 335 334 333 331 329 327 324 321 319 318 316 316
313 312 298 296 294 293 296 298 296 292 297 300 303 302 301 300 305 304 306 307 303 304 303 304 303 306 303 303 306 308 308 313 314 316 318 318 320 315 313 315 318 320 325 323 325 331 332 332 334 334 335 337 340 341 342 345 338 331 333 332 332 334 336 336 336 330 324 321 322 322 324 336 337 334 333 334 325 333 325 327 332 337 337 336 336 335 334 332 331 329 327 325 321 318 319 317 317
312 305 299 296 296 294 297 299 299 300 299 299 301 302 302 300 302 304 305 303 302 303 302 304 306 305 306 307 309 310 310 311 312 312 312 311 311 310 310 311 312 313 314 315 316 317 319 333 333 333 334 335 337 341 343 346 340 337 342 340 338 333 331 330 332 337 331 335 325 326 335 339 338 338 338 331 336 332 327 325 327 332 336 335 334 335 334 332 330 329 327 325 323 320 317 309 308
309 300 298 295 296 297 300 301 301 300 299 302 301 302 301 300 302 302 300 300 301 301 301 304 303 304 305 306 307 308 309 310 311 311 311 310 310 310 309 311 311 312 313 314 315 318 318 319 320 326 334 334 336 337 341 342 343 343 342 342 341 334 335 335 339 338 339 340 339 339 338 339 336 337 336 335 335 326 329 323 326 330 333 332 332 333 333 332 330 328 327 325 325 323 317 310 308
308 300 297 296 300 298 301 302 302 303 303 301 301 301 300 302 302 304 300 298 301 299 298 301 302 302 303 304 306 307 308 309 310 310 310 310 310 309 309 310 309 311 313 314 316 319 317 317 319 319 321 334 335 336 337 337 342 343 342 341 341 341 340 340 339 338 336 338 339 339 337 337 336 336 328 326 327 332 326 321 324 325 327 327 326 328 330 330 330 328 327 326 324 318 316 313 310
306 301 298 300 299 298 300 302 303 302 303 302 301 301 299 302 303 302 300 297 299 299 300 301 301 302 302 304 305 306 307 307 308 308 308 309 309 309 308 309 309 311 312 314 314 316 316 317 317 319 320 326 333 334 334 335 336 336 337 341 340 340 338 339 339 338 336 336 336 336 337 337 335 335 333 332 333 332 328 325 324 326 328 328 325 329 328 325 323 321 320 319 316 317 315 313 312
304 299 301 301 300 299 302 303 303 302 302 301 301 299 301 303 303 301 300 296 296 299 301 302 302 302 302 303 304 306 306 306 306 306 307 307 308 308 308 308 310 311 313 312 313 314 315 317 317 317 318 318 330 332 334 333 335 335 335 336 339 338 339 338 338 338 337 337 336 336 335 333 335 336 336 335 334 333 329 327 327 328 328 329 329 331 329 326 323 322 320 319 317 316 314 313 311
298 301 301 302 301 300 303 303 302 301 301 300 300 302 302 301 300 302 301 300 300 301 302 302 302 303 303 304 304 304 305 305 305 305 306 306 307 308 308 308 308 309 310 312 313 313 315 317 318 318 316 317 325 333 333 334 334 335 336 335 335 336 337 337 336 335 336 336 336 335 334 333 331 332 333 332 332 332 332 330 328 329 332 331 331 331 330 327 322 320 319 318 317 315 314 312 311
301 296 301 301 303 302 304 302 301 301 302 301 303 303 300 300 297 302 300 301 302 302 303 302 303 303 304 303 303 304 304 304 305 306 307 306 307 307 307 308 309 310 310 312 313 314 315 316 318 319 316 316 322 331 332 332 334 335 335 334 332 330 333 334 336 336 335 332 330 331 330 332 332 332 331 330 331 332 332 332 331 330 331 330 328 330 327 324 322 320 318 316 316 315 314 314 313
300 299 301 301 302 303 302 301 300 301 301 302 302 300 299 300 300 299 299 301 301 302 302 302 302 303 303 302 302 303 303 304 304 306 307 305 307 308 308 308 309 309 310 311 312 314 314 315 317 320 317 317 323 328 328 331 333 334 332 330 328 326 329 329 330 331 330 329 328 328 328 330 332 332 331 331 331 331 332 332 331 330 329 329 328 328 326 324 324 321 318 316 316 315 314 313 313
302 301 301 302 302 303 301 301 302 301 302 301 299 298 300 301 301 299 300 301 301 302 301 302 302 301 301 301 302 302 302 303 304 304 305 306 306 306 306 306 307 307 310 310 310 311 312 314 320 322 324 321 326 328 326 328 328 327 326 325 325 324 325 326 327 326 327 326 325 325 326 327 329 329 330 330 328 327 328 327 327 327 328 327 328 327 326 324 321 320 318 318 316 315 314 313 313
301 300 300 300 301 301 302 301 302 302 301 301 298 298 300 300 299 293 300 301 302 301 301 302 301 300 301 301 301 301 302 302 302 304 304 304 304 303 304 304 304 306 308 307 308 310 312 316 320 322 324 326 326 324 324 324 324 323 323 323 323 322 322 323 323 323 324 323 323 324 324 324 325 326 325 325 324 324 323 323 324 324 322 322 324 323 322 321 319 318 318 318 317 316 315 314 314
302 300 299 299 300 301 301 301 301 301 300 301 300 298 300 299 299 296 299 301 301 300 300 300 300 299 299 301 301 302 301 302 302 302 301 301 301 302 303 303 303 304 306 306 308 310 314 316 320 320 321 324 322 321 321 321 321 321 321 321 320 319 319 319 319 320 319 321 322 322 323 323 323 323 323 322 323 322 322 320 319 320 320 320 321 321 321 321 320 319 319 318 319 318 316 314 313
301 300 296 299 300 299 301 300 301 300 299 300 301 297 295 294 294 298 300 300 301 301 300 300 300 300 299 299 299 299 299 301 301 300 301 301 302 304 303 304 303 303 305 306 308 311 312 316 318 317 317 319 319 317 317 318 317 317 316 316 317 316 315 315 314 315 315 316 318 319 320 320 322 322 321 320 319 319 318 317 317 316 318 319 320 321 321 321 320 319 319 319 318 317 317 315 315
302 300 296 296 297 297 301 302 300 298 299 299 299 288 292 295 297 298 300 300 300 300 298 299 299 299 299 299 299 299 300 299 299 300 300 301 303 303 303 304 303 303 304 306 308 309 312 315 315 314 313 312 312 313 313 313 313 312 312 312 312 312 311 310 309 309 310 310 310 311 314 317 319 320 320 319 318 317 316 315 314 315 316 317 317 318 318 318 318 317 316 317 316 316 316 315 313
295 299 298 292 292 292 299 300 298 297 299 298 299 290 291 295 297 299 299 300 299 298 298 298 299 299 299 299 299 299 299 299 299 300 302 302 302 302 303 303 303 304 304 306 306 309 310 311 311 310 310 309 309 309 309 309 309 308 308 308 308 308 307 307 307 307 307 307 308 308 308 308 311 314 316 317 316 315 314 313 312 313 313 313 313 313 315 315 314 312 313 313 313 316 313 309 308
297 294 290 294 291 295 297 300 299 296 296 298 297 291 293 295 296 298 299 299 300 298 298 298 298 298 299 299 298 298 298 299 300 300 301 301 301 301 301 302 303 303 303 305 306 308 309 309 309 309 308 306 306 308 306 307 306 306 305 305 305 305 305 305 305 306 305 306 306 306 306 306 307 309 311 313 312 312 311 310 310 310 311 310 310 311 311 312 314 312 310 308 307 305 304 303 302
296 293 291 292 293 294 295 298 299 301 297 298 296 292 295 293 297 298 298 299 299 298 299 298 299 299 298 297 298 298 298 298 298 298 299 300 300 301 302 302 302 303 303 305 306 307 307 307 307 306 307 306 305 305 305 305 304 303 303 303 303 304 303 303 304 304 304 303 304 304 305 305 306 307 307 307 307 307 306 306 306 306 307 307 306 306 307 307 307 310 306 304 303 301 301 300 300
292 294 291 295 293 293 291 296 299 300 297 293 296 293 294 296 297 298 298 298 298 297 298 298 298 297 297 297 297 298 298 297 296 296 298 299 300 301 302 302 302 303 303 305 307 307 307 307 306 305 305 305 305 304 303 303 302 301 300 300 300 300 300 301 301 301 301 301 302 302 303 303 305 305 306 306 305 305 305 305 305 305 305 304 304 304 304 305 306 305 303 301 301 299 298 298 298
291 292 290 292 295 296 294 292 296 298 297 295 294 293 295 296 297 297 298 299 298 297 298 298 297 297 297 297 297 297 297 296 295 296 299 300 300 300 301 301 301 302 303 305 306 307 307 306 306 306 305 305 305 304 303 302 301 300 300 299 298 298 298 298 299 298 298 299 300 300 301 301 302 304 305 305 304 304 303 303 303 303 303 302 302 301 301 301 301 303 302 301 300 298 297 297 296
295 295 295 295 292 293 293 296 297 298 294 293 294 293 295 296 295 296 297 298 297 297 298 297 297 297 297 296 296 296 296 295 296 297 299 299 299 300 300 302 302 303 304 304 305 306 306 306 306 306 306 305 304 303 302 301 301 300 298 298 297 297 297 297 297 297 297 297 298 298 298 298 299 299 301 302 302 302 302 302 302 302 301 300 299 298 298 298 298 298 300 299 297 296 296 296 296
298 298 296 294 294 295 298 295 297 298 296 294 295 295 295 297 296 296 297 297 297 297 296 296 296 296 296 296 296 296 295 295 297 298 298 299 299 299 300 301 302 302 304 305 304 304 305 304 304 304 305 305 304 303 301 300 298 297 297 296 295 296 296 296 295 295 295 295 296 296 295 295 296 296 297 297 298 299 299 299 299 298 297 297 296 295 295 295 296 297 297 298 296 295 295 295 295
297 296 294 293 295 292 298 297 296 298 295 292 295 295 296 297 299 297 297 296 295 296 296 296 296 296 296 296 295 295 295 296 296 296 297 298 298 300 300 300 301 301 301 303 303 303 304 304 303 303 303 302 301 300 299 298 298 297 295 295 295 295 294 293 293 293 293 293 293 293 293 293 293 294 294 294 294 295 294 294 294 293 293 293 293 293 292 293 293 294 295 295 296 295 293 294 294
297 293 293 292 293 296 299 295 297 296 295 291 294 294 295 298 300 297 296 295 296 298 298 297 296 295 295 296 295 295 294 294 295 295 296 296 298 299 299 299 299 300 301 301 302 303 303 302 301 301 300 299 299 299 298 297 298 297 295 294 294 293 293 293 292 292 292 291 291 291 292 292 292 292 292 293 293 292 292 292 291 291 291 291 290 290 290 290 290 290 291 291 292 292 294 293 291
294 293 291 289 295 294 290 295 296 296 294 293 293 292 294 297 298 296 297 296 297 299 298 298 297 296 295 295 296 295 294 294 293 293 294 296 296 297 298 298 298 300 300 300 301 302 302 301 300 299 297 297 297 297 296 296 296 296 295 294 293 292 290 291 291 290 290 290 289 290 291 291 291 291 291 291 291 291 291 290 290 290 290 290 289 288 289 289 289 289 289 289 289 287 288 289 290
295 295 293 292 294 295 294 293 294 295 296 296 293 291 292 295 295 293 296 297 295 294 295 294 294 296 296 296 296 296 295 294 293 294 294 294 295 296 297 297 299 298 298 299 300 300 301 299 298 297 297 297 297 296 295 294 294 294 294 293 293 292 291 289 288 288 288 289 289 289 289 290 290 290 290 290 290 290 290 290 289 288 289 289 288 288 288 288 288 288 288 287 287 286 286 285 287
293 296 295 295 297 295 296 298 293 291 290 294 293 284 284 293 295 296 293 291 292 293 292 292 293 294 293 292 293 294 296 295 294 293 293 294 294 295 296 297 297 296 296 298 299 299 299 299 299 298 297 297 297 296 296 295 294 293 292 290 288 288 286 286 285 285 286 287 287 288 289 289 289 289 289 289 289 289 289 289 288 288 287 288 288 288 287 288 288 288 288 287 287 287 286 284 284
290 293 299 298 296 296 296 295 294 284 283 292 295 285 283 292 293 294 291 291 291 292 291 292 293 293 292 292 293 292 293 293 294 294 293 293 294 295 296 296 295 294 295 297 297 297 297 297 296 296 295 295 297 295 296 295 293 292 291 290 288 287 286 286 286 286 286 287 287 287 288 288 289 288 288 289 289 289 289 288 288 288 288 287 288 288 288 287 288 288 288 287 287 288 286 284 284
290 296 299 299 297 296 295 295 293 290 295 295 294 292 283 284 291 293 292 291 291 291 291 292 293 293 292 293 293 292 292 292 292 292 293 293 294 294 294 295 294 294 294 295 294 295 294 294 294 294 293 294 294 294 294 293 291 291 289 289 288 287 286 286 287 287 287 287 286 286 287 287 288 288 288 288 288 288 288 288 287 287 287 287 287 287 287 287 287 288 287 287 287 287 286 284 283
294 296 299 297 297 297 296 294 291 290 288 285 287 292 283 283 290 293 292 289 289 290 290 291 292 292 292 293 293 293 293 292 292 292 292 293 294 293 292 291 292 293 293 292 292 292 293 293 293 292 292 292 292 293 292 292 291 290 289 288 287 287 287 287 288 288 287 287 286 286 286 286 287 288 288 287 287 287 287 287 286 286 286 286 286 287 286 286 286 286 286 285 285 286 286 285 284
297 298 298 297 297 295 296 289 289 287 286 283 286 291 284 285 290 289 290 289 290 291 292 292 293 293 292 292 292 293 293 292 293 293 292 292 291 291 291 291 291 291 292 293 292 292 292 292 291 291 291 291 292 291 291 291 290 290 288 288 287 287 287 287 287 287 286 286 286 285 285 285 285 286 286 287 286 287 286 286 286 285 285 286 286 285 285 285 285 285 285 285 285 284 285 285 285
298 298 296 294 293 291 290 290 288 286 283 285 289 291 289 282 288 289 289 290 294 295 293 293 293 293 292 293 292 292 292 292 292 292 291 291 290 290 290 290 290 290 290 291 291 291 291 291 290 290 290 291 291 291 291 290 290 289 289 288 287 287 287 287 286 286 286 285 285 285 284 285 285 285 285 285 286 286 286 286 285 285 285 285 285 285 284 284 284 284 285 284 284 284 284 283 284
298 293 290 291 288 288 286 286 288 283 282 286 290 291 291 281 284 292 295 296 296 296 293 292 293 293 292 292 292 292 292 292 292 291 290 289 289 289 289 289 289 289 290 290 290 291 291 290 290 290 290 290 291 291 291 291 290 290 289 289 288 288 288 288 286 286 285 285 285 285 284 285 284 285 285 284 284 285 285 285 284 284 284 284 284 284 284 284 284 284 283 283 283 283 283 283 282
295 292 291 285 284 284 280 283 281 282 281 283 287 290 287 287 291 293 294 294 295 297 297 294 294 293 292 292 292 292 292 291 291 290 289 288 288 288 288 288 288 289 289 290 290 290 290 290 290 289 289 290 290 290 290 290 290 289 289 289 288 288 288 287 287 286 286 285 285 285 284 283 283 283 283 283 283 284 284 283 284 283 283 283 284 284 283 284 284 283 283 282 282 282 282 282 281
291 289 287 284 283 281 280 282 283 282 283 283 285 288 284 287 290 297 297 292 293 292 294 295 295 293 293 292 292 291 291 290 290 290 288 288 288 288 288 288 288 289 289 290 290 290 290 290 289 289 289 289 289 290 289 289 289 289 289 288 288 288 287 287 286 286 286 286 286 285 284 284 283 283 283 283 284 284 284 284 284 283 283 283 283 283 283 283 283 282 282 282 281 282 282 281 281
292 294 292 288 287 283 279 281 279 281 281 281 284 283 280 281 286 287 289 289 290 290 293 294 293 293 292 291 291 290 290 290 290 289 289 289 289 288 288 288 288 289 289 290 290 289 289 289 289 288 288 288 289 288 288 288 288 288 288 288 288 288 287 287 287 287 286 286 285 285 284 284 283 283 283 283 284 283 283 283 283 282 282 282 282 282 282 282 282 282 282 281 281 281 281 281 280
291 294 295 289 288 290 285 283 282 282 280 278 278 281 283 286 289 289 290 288 289 290 292 293 292 292 291 290 290 290 290 290 290 289 289 289 289 288 288 288 289 289 289 289 289 289 289 289 288 288 288 288 288 288 288 288 288 288 288 287 287 287 287 287 287 286 286 286 285 284 284 283 283 283 283 283 283 282 282 282 282 282 282 282 281 281 280 280 280 280 280 279 279 282 279 279 278
288 292 287 291 294 292 286 281 282 281 281 279 282 281 284 289 288 288 288 288 288 290 291 291 290 290 290 289 289 289 290 290 289 289 289 289 288 288 288 288 288 288 288 289 289 289 289 288 288 288 288 288 288 288 288 288 288 287 287 287 287 287 287 286 286 286 286 285 285 284 284 283 283 283 284 283 282 281 282 281 281 281 281 281 280 280 279 279 279 278 279 278 278 278 278 278 278
291 285 289 293 295 293 287 283 282 280 280 282 281 280 280 282 282 286 286 286 287 288 288 290 290 289 289 289 289 289 290 290 289 289 289 289 288 288 288 288 288 288 288 288 289 288 288 288 288 288 287 287 287 287 288 287 287 287 287 287 287 287 287 286 286 285 285 285 284 284 283 283 282 283 283 283 282 281 281 281 280 279 279 279 279 278 278 277 278 278 278 277 278 277 277 278 278
291 289 296 290 284 284 287 285 280 279 278 280 279 281 282 284 285 283 285 287 287 287 287 288 289 289 289 289 289 290 290 289 289 288 288 288 287 287 287 287 287 287 288 288 289 289 288 287 288 288 287 287 287 288 288 288 288 288 288 287 286 286 286 286 286 286 285 284 283 283 282 282 282 281 281 280 280 279 279 279 278 278 278 278 277 277 277 277 277 276 277 277 277 277 276 276 277
294 294 289 293 287 284 283 286 283 282 280 277 280 279 280 286 288 287 289 289 289 288 288 289 290 290 290 290 290 289 289 289 289 289 289 288 288 287 287 287 287 287 287 288 288 288 288 288 288 287 287 287 287 287 287 287 287 287 287 286 286 286 286 285 285 284 284 283 282 282 281 280 280 281 279 279 278 278 278 278 277 278 277 277 277 276 276 276 276 276 276 277 276 276 276 275 276
285 285 284 288 286 287 286 285 285 282 278 278 279 278 281 288 292 291 291 292 291 289 289 289 290 291 291 291 290 290 290 289 289 289 289 288 287 286 286 286 286 286 287 287 288 287 287 287 287 287 287 287 287 287 287 287 287 286 286 285 285 285 285 284 284 283 283 282 282 281 279 279 279 279 278 278 278 277 277 277 277 277 276 276 276 276 276 275 275 275 275 275 276 276 275 275 275
291 289 287 290 287 284 281 281 286 286 283 279 279 280 282 290 291 292 294 293 293 292 291 290 291 291 291 292 291 291 290 290 290 290 289 288 287 287 286 285 284 285 285 286 287 287 286 286 287 287 287 286 286 286 286 286 286 286 285 284 284 284 283 283 282 281 281 280 280 279 279 278 278 278 278 278 277 277 276 276 276 276 276 275 275 275 275 275 275 274 274 277 277 275 274 274 274
Wind_Speed
10 9 5 4 3 4 2 2 1 1 2 4 3 2 2 2 1 3 5 3 5 3 3 3 4 3 3 1 2 8 10 7 8 4 2 1 1 5 4 3 2 3 3 9 8 7 5 7 10 11 12 12 13 12 13 12 12 10 9 9 9 9 8 8 8 8 8 8 9 8 9 9 10 10 10 10 11 12 13 13 13 13 13 13 15 16 17 17 17 17 17 17 16 16 15 14 14
8 7 6 4 3 2 0 0 1 2 2 6 5 4 2 2 1 7 6 7 4 3 2 2 2 2 2 2 0 3 11 11 9 5 3 6 7 5 3 5 4 5 2 9 8 6 6 5 9 11 12 12 13 13 13 12 12 11 9 9 8 9 8 8 7 8 9 8 8 8 8 9 9 9 9 10 10 11 12 12 12 13 13 13 15 15 16 16 17 16 16 16 16 15 15 15 14
7 7 6 3 3 2 3 1 1 1 5 5 3 1 2 5 6 6 7 6 5 3 0 3 0 1 5 5 2 7 4 11 8 9 5 2 2 5 3 1 3 0 4 9 8 6 6 6 9 10 12 13 13 13 13 12 12 11 10 9 9 8 8 7 7 8 8 8 7 8 7 8 8 9 8 9 11 11 12 11 12 14 12 12 13 14 14 15 16 16 15 15 15 15 15 14 14
6 6 4 3 2 2 1 1 3 3 4 5 4 2 4 5 7 7 6 5 4 1 1 1 1 1 3 9 4 7 5 6 7 4 2 3 2 3 1 0 4 2 3 5 7 7 5 7 9 9 11 12 13 13 13 12 12 10 10 9 9 8 8 7 7 7 7 8 7 7 7 7 8 8 8 8 9 9 11 11 13 12 10 11 12 13 14 15 16 15 15 15 15 14 14 14 13
4 4 4 3 1 1 1 2 3 4 5 2 4 4 6 5 7 6 4 4 3 3 3 1 1 2 7 5 5 2 3 1 10 9 2 3 2 2 1 1 3 3 2 2 10 8 8 13 8 10 10 12 13 12 13 13 12 11 9 9 9 9 8 7 7 7 7 7 6 6 6 6 6 7 7 8 9 8 11 9 11 12 11 12 11 12 14 16 15 14 14 14 14 14 14 13 13
7 4 3 1 1 0 0 2 1 7 2 1 5 4 6 5 6 6 5 4 3 3 1 1 2 2 3 5 4 3 5 3 3 5 3 3 2 3 0 5 2 5 3 3 6 8 8 13 11 10 10 11 12 12 13 13 13 11 10 11 10 9 8 8 8 7 7 6 5 5 4 5 5 6 6 8 9 10 9 10 10 9 10 10 12 14 15 15 14 14 14 13 13 13 13 13 13
3 3 1 1 2 1 2 2 5 4 5 4 4 5 5 4 4 6 6 4 4 4 2 2 3 2 6 2 6 5 6 3 3 1 3 1 2 2 6 0 1 5 4 2 9 9 10 11 11 10 8 10 12 11 11 12 12 11 10 10 11 10 8 8 8 8 7 6 5 4 5 4 4 5 5 7 11 9 10 9 8 9 11 13 14 15 16 16 15 15 14 14 14 14 14 14 13
1 0 0 1 2 1 3 1 6 4 2 7 5 7 4 4 1 2 2 1 2 1 2 1 3 3 3 5 5 2 5 6 5 3 4 3 3 4 6 5 5 4 4 9 8 8 9 10 9 9 9 11 10 11 11 10 11 10 9 10 10 10 9 7 8 8 7 5 4 5 4 3 4 3 5 6 9 10 10 8 10 11 12 14 15 16 16 15 15 15 14 14 14 14 14 14 14
2 2 0 0 2 0 2 6 4 4 4 5 5 6 6 2 3 1 5 2 3 3 3 4 4 1 4 11 7 3 4 6 7 6 5 5 4 5 5 8 6 6 4 9 8 8 7 9 8 8 9 10 10 12 12 11 11 10 9 9 9 10 9 7 7 6 6 5 5 4 4 4 3 5 5 5 6 8 10 8 10 11 13 14 15 15 14 15 15 14 14 14 14 14 14 14 14
2 1 1 1 2 2 2 4 4 3 4 4 6 5 4 3 2 3 2 4 3 2 3 2 5 3 3 11 6 3 3 6 6 6 4 5 4 4 6 6 7 3 4 3 7 6 5 9 10 8 7 7 9 11 12 11 9 11 9 8 8 9 9 8 5 6 5 5 5 6 5 5 5 5 6 7 8 8 10 10 8 12 13 14 14 14 14 14 14 14 14 13 13 14 14 14 14
1 2 0 1 2 2 3 4 6 4 4 4 4 4 3 2 0 2 3 5 0 3 3 3 2 5 3 4 4 3 6 5 7 6 4 4 4 4 4 4 4 6 5 5 5 7 6 5 10 9 8 8 8 6 8 7 8 7 8 7 6 7 9 7 5 5 4 5 5 6 6 6 6 6 7 8 9 9 9 10 10 11 13 13 13 13 13 13 13 14 13 13 13 13 13 13 13
2 0 1 1 3 1 5 5 5 5 5 4 4 3 0 3 0 1 2 4 3 6 5 6 1 3 3 5 3 3 6 10 6 4 3 2 5 3 4 3 5 5 6 4 3 4 7 6 5 7 9 7 8 7 7 7 9 7 4 7 6 6 8 8 6 3 4 5 5 6 6 6 6 6 7 8 10 10 9 10 11 12 12 12 12 12 12 12 13 13 13 12 12 13 12 12 12
0 3 3 2 2 3 1 1 4 5 3 3 5 2 0 2 1 3 3 2 1 5 4 3 1 1 2 3 4 4 11 6 5 4 2 3 4 3 5 4 5 5 4 5 3 4 3 6 6 5 5 7 8 9 7 7 8 7 7 5 6 6 7 7 5 5 4 6 6 6 6 6 6 7 7 8 10 9 9 9 10 13 12 12 11 12 12 12 13 13 11 12 12 13 12 12 12
1 1 1 1 0 1 0 3 4 3 2 4 4 4 1 1 3 4 3 2 8 5 1 1 1 4 1 7 3 4 5 4 4 2 1 1 4 4 5 4 4 4 2 2 1 3 3 2 7 6 6 5 4 6 8 9 8 8 8 6 5 7 8 8 6 6 5 6 7 7 7 6 6 7 7 9 9 9 8 6 8 11 11 11 11 11 12 12 12 11 11 11 12 13 12 12 11
2 3 1 2 1 0 1 1 3 4 3 3 1 3 3 4 2 1 4 3 4 4 3 3 1 1 1 2 2 3 5 4 4 0 0 1 4 4 5 5 4 4 3 5 6 4 4 5 3 4 6 5 5 5 4 7 9 8 9 8 6 7 8 9 8 7 7 8 8 9 8 8 7 8 9 9 9 9 7 7 8 9 10 11 11 11 12 11 11 10 10 10 11 12 12 12 11
1 2 1 1 2 1 0 1 2 0 3 3 0 2 3 4 1 0 2 2 0 1 0 2 3 2 3 5 2 2 3 3 4 0 3 1 3 5 5 5 5 4 3 3 4 6 5 3 5 3 2 5 5 5 5 6 8 8 7 8 8 7 7 8 9 8 8 9 9 9 9 7 7 8 11 9 11 11 9 7 9 8 10 11 10 11 11 11 10 9 9 9 9 11 11 10 10
1 0 1 3 0 1 1 0 2 1 3 3 3 3 2 4 1 3 0 0 1 4 6 5 3 4 5 4 2 1 3 4 6 3 1 2 3 3 4 4 5 4 3 5 4 3 2 2 4 4 4 2 2 5 5 7 8 10 7 7 7 8 8 8 8 9 8 7 7 7 8 7 6 5 7 6 9 8 9 10 10 10 10 10 10 11 11 11 9 8 8 8 7 8 7 7 6
0 0 1 3 1 5 2 4 3 6 4 3 3 3 2 3 4 2 0 1 3 1 8 6 9 7 5 3 3 2 4 5 6 6 6 6 5 5 6 5 6 5 6 4 5 6 5 0 1 3 5 4 4 1 2 5 7 8 7 5 4 5 6 6 6 4 5 4 5 5 3 4 6 6 6 8 6 7 8 11 11 11 10 10 9 10 11 10 9 8 7 7 5 5 4 3 2
0 2 1 1 2 0 3 2 5 0 4 4 4 1 2 3 0 2 1 4 5 3 6 6 7 6 5 5 4 4 5 7 6 7 7 7 7 6 6 5 6 5 6 6 4 6 6 7 7 4 2 4 4 4 0 5 6 5 4 6 5 6 5 5 4 4 3 4 4 3 4 5 3 5 6 7 6 8 7 10 11 12 11 10 9 10 10 10 9 7 6 5 5 3 1 3 3
0 1 2 3 3 3 4 4 4 5 2 4 4 2 2 3 0 1 2 3 2 3 5 5 6 5 4 4 4 4 6 6 6 6 8 7 6 6 6 5 5 4 4 3 6 4 6 6 7 5 7 3 3 5 1 1 7 5 6 6 5 5 5 5 3 3 3 4 5 4 2 3 3 5 7 9 8 5 5 5 8 11 11 10 10 7 7 8 8 6 4 4 4 4 4 3 3
1 1 2 1 1 1 2 4 5 4 6 3 1 2 2 2 1 1 2 2 1 5 5 4 5 4 4 5 4 4 5 6 6 6 7 7 6 6 5 5 4 4 4 3 5 5 4 5 4 6 7 6 1 4 4 1 2 5 5 7 6 5 4 5 3 3 3 3 2 0 2 3 2 4 6 6 5 6 5 4 2 2 3 5 8 5 4 3 3 3 1 0 4 5 5 4 4
2 1 3 2 1 3 3 6 6 3 4 2 2 2 0 3 1 1 2 2 1 1 2 4 4 4 4 3 4 4 5 6 6 6 6 7 6 6 5 4 4 3 4 5 4 4 4 4 4 3 5 6 3 2 4 2 0 0 1 4 6 5 5 4 1 2 1 3 3 4 6 4 3 3 2 4 6 6 6 5 5 4 4 5 4 5 5 3 2 2 4 5 5 4 4 4 4
2 1 3 3 2 2 2 5 3 0 1 1 1 1 2 1 2 2 2 1 4 3 3 4 4 4 3 4 4 5 5 5 5 5 5 6 6 6 5 4 4 5 5 4 4 3 5 5 6 4 3 5 5 3 3 1 1 1 4 4 4 5 5 5 6 4 2 2 3 4 1 1 3 1 1 1 1 3 5 4 5 5 4 4 2 2 4 2 3 5 5 4 4 3 2 3 2
1 1 3 3 1 2 3 5 4 0 0 2 0 0 1 2 4 0 3 5 6 5 4 4 4 3 3 5 5 5 4 4 4 4 4 5 5 6 5 5 5 4 4 6 5 5 5 6 8 6 3 4 5 3 2 1 0 3 5 8 9 9 7 7 6 5 6 8 8 7 7 3 4 4 1 2 3 2 3 1 2 1 3 4 3 3 5 3 3 4 4 3 3 3 3 2 1
2 1 3 3 1 1 3 4 3 3 3 3 2 1 4 4 3 1 4 7 6 6 4 4 3 3 4 5 4 5 4 4 4 4 4 4 4 5 5 5 4 4 6 6 5 6 6 7 8 9 2 3 5 3 3 4 3 8 8 8 8 8 8 8 8 8 7 7 8 8 8 6 6 4 4 5 5 4 3 4 4 3 3 4 4 5 5 3 2 2 3 3 3 4 4 3 1
1 3 2 1 1 3 4 4 5 6 3 3 3 5 5 6 6 1 8 6 6 5 4 4 3 4 4 4 4 4 4 4 3 3 4 4 4 5 6 5 5 6 6 6 6 6 6 8 7 8 8 4 4 2 4 9 8 8 8 8 6 8 7 7 8 8 7 7 7 7 7 6 6 6 5 4 6 4 5 4 6 6 3 2 4 4 2 2 3 5 4 1 2 4 4 3 2
2 3 3 3 4 3 3 5 4 5 4 5 4 4 4 3 4 3 3 7 6 5 5 3 4 4 4 3 3 3 4 4 4 3 4 4 4 5 5 6 7 7 6 7 6 6 6 6 6 8 7 9 10 9 7 8 9 9 8 7 7 7 6 7 8 8 7 8 7 7 6 7 7 6 5 6 6 4 6 6 7 6 6 6 5 6 5 5 5 5 4 4 3 4 3 2 4
2 3 4 6 7 7 4 4 6 2 3 5 4 5 0 2 2 4 8 7 7 6 5 4 4 4 4 4 4 3 4 4 3 5 6 6 6 5 6 6 6 6 6 7 6 5 5 7 7 8 8 9 10 9 9 9 9 9 8 8 8 7 7 8 8 7 8 8 8 8 7 6 7 8 8 7 7 7 7 7 7 7 6 6 6 6 6 6 5 5 4 4 3 3 2 3 2
2 2 3 4 4 6 8 8 6 4 1 1 4 3 4 5 5 4 8 7 6 6 6 4 4 4 4 3 4 3 3 4 4 5 5 3 3 4 5 5 5 5 4 5 6 6 7 6 6 7 8 9 10 10 9 8 7 7 8 8 7 7 8 8 8 7 7 8 8 8 8 8 7 7 7 8 9 8 8 8 7 7 6 6 6 6 6 4 4 4 2 2 3 2 1 1 1
1 3 3 5 5 8 11 7 5 5 2 5 5 2 7 11 5 6 7 7 5 6 5 4 4 4 3 4 4 4 3 3 5 3 3 3 3 3 5 5 5 5 4 4 6 7 6 4 4 5 8 10 9 7 8 8 7 7 8 7 8 8 8 8 7 7 7 7 8 9 8 8 8 7 6 8 8 8 8 8 7 7 6 7 7 7 7 6 6 6 6 5 3 4 3 4 5
2 3 2 3 3 3 3 5 6 4 2 5 2 3 4 7 5 5 6 6 6 5 5 5 5 4 4 3 5 4 3 4 4 3 3 3 3 3 3 5 6 6 4 5 7 6 6 6 5 5 7 8 9 7 10 9 7 8 8 8 8 8 8 8 8 8 8 7 8 8 9 9 10 9 9 7 8 8 8 8 8 6 6 7 8 7 7 6 6 6 7 7 6 7 7 7 8
3 1 4 3 5 0 2 5 8 6 1 4 3 2 7 6 5 6 5 6 5 5 5 5 4 4 4 4 4 5 4 4 4 4 3 4 4 3 4 5 6 5 6 5 5 5 7 7 7 8 8 10 10 8 9 8 9 10 8 8 8 8 8 8 8 8 8 8 8 8 9 10 10 10 9 8 8 7 7 7 6 6 6 7 8 8 7 6 4 7 9 8 7 7 8 9 7
4 6 3 4 3 3 1 4 6 1 4 2 7 3 5 1 5 5 4 6 6 4 6 6 5 5 5 4 4 5 5 4 4 4 3 4 4 4 5 6 5 5 5 6 6 5 7 8 8 8 9 9 9 12 11 9 10 11 9 9 9 9 9 9 8 8 8 8 7 8 9 10 11 10 10 9 8 8 8 8 7 7 6 6 7 7 7 6 6 6 8 8 7 6 8 8 7
4 4 6 5 5 3 3 1 3 2 5 4 6 5 5 3 8 6 7 8 7 5 6 6 6 4 4 4 4 5 5 4 4 3 3 3 4 5 5 4 5 5 4 5 4 5 6 7 7 8 8 8 9 9 9 8 9 10 10 9 9 10 10 9 8 8 8 7 7 9 8 7 8 9 9 8 8 8 7 7 8 9 8 8 8 8 8 7 7 6 6 8 9 8 7 7 8
5 4 4 5 6 7 5 4 5 3 4 4 5 8 9 5 6 7 9 8 9 8 6 7 6 5 4 4 4 4 4 5 4 3 2 3 4 4 4 4 4 3 4 4 5 4 5 5 7 8 8 8 9 10 11 10 10 11 10 10 10 10 9 8 8 9 8 8 9 9 9 9 9 9 8 7 8 8 9 9 9 9 8 8 9 9 9 9 9 7 7 7 8 8 7 6 6
5 6 1 3 3 3 2 2 4 5 4 4 4 6 6 5 6 6 6 7 8 7 5 6 6 5 5 4 4 4 4 5 4 4 2 3 3 3 3 4 2 1 3 4 4 5 5 6 5 6 8 8 6 6 6 7 7 7 9 8 11 9 9 9 9 9 8 9 9 10 10 10 10 10 10 9 9 9 9 9 9 10 9 8 9 10 9 9 9 8 6 8 7 7 7 7 8
7 2 2 5 4 4 2 4 3 1 0 5 6 5 5 6 7 10 9 6 5 5 6 6 5 6 6 5 5 5 4 5 4 4 3 3 3 3 3 2 2 3 4 4 4 5 5 5 5 7 5 5 5 6 5 6 7 8 9 9 10 8 8 9 10 9 9 9 10 10 10 9 10 10 10 9 9 9 9 9 9 9 9 9 9 9 8 9 8 8 6 5 6 6 8 9 10
7 3 4 5 2 6 5 2 3 1 2 2 3 4 7 7 5 9 6 7 8 8 7 7 7 6 6 6 6 5 5 4 4 4 4 3 3 3 4 2 2 4 4 5 4 5 4 4 6 6 6 7 7 7 6 7 7 6 8 7 9 7 8 9 9 9 9 9 10 10 9 9 10 10 9 9 10 9 9 9 10 9 9 9 8 8 9 9 10 10 7 6 4 7 7 9 10
6 4 3 3 5 5 4 6 2 2 2 5 5 10 9 10 10 8 11 12 9 9 9 8 9 8 6 6 6 6 6 5 4 4 4 3 3 3 3 3 3 3 4 4 3 5 4 5 6 6 6 6 6 6 6 8 7 7 8 7 9 10 8 8 9 7 8 10 10 9 9 10 10 10 10 10 9 9 9 9 8 8 9 8 9 10 9 10 9 10 9 7 6 5 5 7 11
2 2 2 6 2 3 3 0 1 3 3 2 3 6 6 6 5 6 10 10 5 3 3 4 7 9 7 7 7 7 7 7 6 5 5 5 4 3 3 3 3 3 4 4 3 5 4 5 6 7 7 7 7 7 9 9 10 10 10 10 10 10 8 8 9 8 9 11 11 9 9 9 10 10 10 10 9 10 9 9 8 8 8 7 7 8 9 9 9 9 9 9 5 8 6 8 8
4 5 6 4 4 6 6 1 2 3 3 3 5 8 9 8 10 5 6 3 4 2 3 2 3 3 4 5 6 6 8 8 7 7 6 5 5 4 4 4 3 4 3 2 3 4 4 6 7 7 7 8 8 9 10 10 11 11 10 10 9 9 8 7 8 9 8 8 9 10 9 9 10 10 10 10 9 9 8 8 8 8 8 7 7 8 8 8 8 7 9 9 9 6 8 5 8
5 7 9 6 6 6 5 1 4 1 3 5 4 4 4 11 16 13 5 2 2 3 4 4 4 3 5 5 5 4 6 6 7 7 7 6 5 4 5 4 4 4 3 2 3 4 4 6 7 7 8 7 7 7 8 7 8 9 6 7 8 7 8 7 8 8 7 8 8 6 9 9 8 9 8 8 8 7 8 8 7 8 8 8 8 7 7 8 9 9 8 7 9 9 5 7 8
4 3 3 10 8 5 3 5 1 3 3 2 3 6 7 5 6 7 8 9 7 4 6 6 6 7 6 6 6 5 6 6 6 6 6 7 6 6 5 4 5 5 3 2 3 5 5 5 5 6 6 5 4 5 4 5 6 6 8 7 7 8 10 6 5 6 7 6 7 8 7 7 8 9 8 8 8 8 8 8 8 7 7 7 7 7 8 8 7 8 7 8 8 7 7 8 7
4 1 2 2 1 2 3 3 5 6 2 1 2 3 6 7 7 2 6 7 5 6 7 7 8 9 9 7 8 8 7 6 6 7 7 6 6 6 6 6 5 5 3 3 4 4 5 5 6 6 5 5 4 6 8 8 9 9 10 9 7 8 8 9 7 7 6 6 8 8 7 7 7 7 8 8 8 8 8 8 8 7 8 7 7 7 7 7 7 7 8 8 7 7 7 7 6
1 1 3 1 1 1 2 2 4 3 1 6 4 3 2 7 4 8 9 5 7 11 11 11 10 10 10 9 9 10 9 8 8 8 8 8 8 7 6 6 6 5 4 4 4 4 5 5 6 6 6 6 6 7 8 8 9 10 9 9 10 7 8 8 6 6 6 6 8 6 7 7 7 7 7 7 7 8 8 8 7 8 8 8 7 7 7 7 8 7 8 9 8 8 7 6 6
1 2 4 3 3 1 1 1 1 3 4 9 4 6 6 14 4 5 3 4 8 11 13 13 12 12 11 11 9 10 9 9 7 7 7 6 6 7 6 6 6 5 4 4 4 4 5 5 7 7 7 6 6 7 8 8 9 9 9 8 11 10 7 7 6 7 6 5 7 6 6 6 6 7 7 6 7 7 7 7 8 8 8 7 7 7 7 8 7 7 7 7 7 7 7 7 7
5 4 4 2 1 0 1 0 1 2 10 8 5 8 8 10 5 9 9 8 11 8 4 7 9 9 10 9 11 10 10 9 9 8 7 7 5 6 7 7 6 5 4 4 4 4 5 5 6 7 6 6 6 7 8 9 8 8 9 9 9 10 9 8 8 7 6 6 7 6 6 6 6 6 6 7 7 7 8 7 7 8 7 7 7 7 7 6 7 6 6 6 7 8 6 6 7
5 2 2 1 1 2 0 1 3 4 11 5 11 9 10 11 1 7 12 7 11 10 11 14 14 14 13 11 11 11 10 9 9 9 8 8 7 6 6 7 6 5 5 4 4 4 5 5 7 8 6 6 6 7 8 8 8 7 7 8 9 8 8 7 8 8 7 7 6 7 6 6 6 6 6 7 7 6 6 7 6 6 7 7 7 6 6 6 5 6 6 6 6 6 6 6 5
2 4 4 6 2 2 2 3 5 9 10 1 5 11 7 18 12 5 1 2 1 4 10 15 16 14 13 11 12 10 9 8 9 9 8 8 8 8 7 7 7 6 6 5 5 5 5 6 7 9 7 6 7 7 9 8 8 7 7 7 7 7 7 7 7 7 5 7 7 7 7 6 6 6 6 6 6 6 5 6 7 7 7 7 6 6 6 6 5 6 6 5 6 6 6 5 5
5 7 7 6 4 5 6 4 3 4 3 1 0 1 7 2 5 13 15 1 2 4 1 10 14 15 14 12 11 10 9 9 8 8 8 7 8 7 6 7 6 6 6 6 6 5 5 6 6 8 8 7 7 8 8 8 7 7 7 7 7 7 7 7 6 8 7 7 7 7 6 6 6 6 6 5 5 5 6 6 6 6 6 6 6 6 6 5 5 6 5 6 5 5 5 5 4
11 6 9 9 9 2 4 5 9 6 3 1 2 5 6 4 6 6 4 2 3 3 5 8 8 8 7 8 8 9 9 8 8 8 8 8 8 7 7 7 7 6 7 6 5 5 5 6 7 9 9 7 8 7 7 8 7 7 6 7 7 7 7 7 7 6 7 7 6 7 6 6 6 6 6 5 5 5 5 6 6 6 5 6 5 6 6 6 5 5 5 5 5 4 5 4 4
5 6 4 4 8 1 8 0 0 1 1 2 2 6 2 5 0 2 1 4 4 3 7 11 10 9 10 10 11 10 10 10 9 9 9 8 8 7 7 7 6 7 7 6 6 6 6 6 7 8 9 8 8 8 7 8 7 7 6 7 7 7 7 7 7 6 6 6 7 7 7 6 6 6 5 6 5 4 5 5 5 6 5 5 5 5 5 5 5 4 4 4 5 4 4 5 3
5 5 9 9 1 2 4 1 0 0 3 9 4 5 6 1 1 2 3 4 2 1 6 8 9 9 10 10 10 10 10 10 9 9 9 9 8 7 7 7 7 7 7 6 6 6 7 8 9 9 8 7 8 7 8 7 7 8 7 7 7 7 7 7 8 8 7 6 7 7 7 6 6 5 5 4 5 4 5 5 5 5 5 5 5 5 4 4 4 4 4 3 4 4 4 4 4
7 5 6 3 3 3 2 6 1 3 9 8 8 9 3 3 9 4 4 4 3 2 4 7 8 8 10 9 10 11 11 9 7 7 7 8 8 8 7 6 6 7 7 7 7 6 6 7 9 11 10 10 8 8 8 8 9 8 8 7 6 7 7 7 7 8 7 8 6 6 6 6 5 4 5 5 5 5 5 5 5 5 5 5 5 4 4 4 4 4 4 3 2 3 4 4 4
2 4 1 8 4 4 3 1 9 5 7 5 3 6 7 12 10 3 6 9 9 7 5 7 11 11 11 10 9 8 8 8 10 10 10 9 10 9 8 8 7 6 7 6 6 7 7 6 7 9 11 9 9 8 7 7 7 7 6 8 8 7 6 6 6 7 6 7 7 6 6 6 5 4 5 5 5 5 5 5 5 4 4 5 4 4 4 4 3 3 3 3 3 3 3 4 5
1 1 2 2 2 1 6 8 1 3 9 2 7 5 10 8 5 14 14 14 13 12 10 12 13 14 13 11 12 13 13 12 11 11 10 10 10 9 9 10 10 10 9 8 7 7 8 8 9 8 7 8 8 9 8 9 7 7 8 7 6 6 6 6 6 7 7 6 6 6 6 5 5 5 5 5 5 5 4 5 4 5 4 4 4 3 3 2 3 2 3 3 3 3 3 4 4
4 1 3 1 1 1 2 2 6 4 2 4 5 7 5 3 2 14 15 16 16 18 17 14 12 12 11 11 13 13 13 13 13 12 12 11 10 10 8 7 7 7 6 7 7 9 8 7 8 9 11 10 9 9 8 7 8 8 8 8 8 7 7 6 7 6 7 6 5 5 5 4 5 5 5 5 4 4 4 4 4 4 4 3 3 3 2 2 3 3 3 2 2 2 3 4 4
13 14 14 15 10 6 4 10 4 6 3 6 3 14 2 1 3 4 12 12 14 17 18 14 12 12 12 11 11 12 12 11 12 12 10 11 10 10 8 7 6 7 8 9 8 7 7 8 8 9 9 9 10 9 8 8 7 8 8 8 7 6 7 7 7 6 6 6 5 5 4 4 5 4 4 4 4 4 4 4 4 4 4 3 2 2 1 2 1 2 3 2 2 2 3 4 4
Wind_Direction
292 274 248 267 282 262 329 203 333 210 193 62 90 42 70 53 274 122 67 173 77 56 17 32 15 14 11 84 356 62 40 44 20 76 126 153 42 52 37 14 355 119 137 122 123 125 119 125 143 141 145 143 138 136 131 127 124 121 120 116 113 110 106 105 102 100 95 91 86 84 83 83 83 90 100 99 97 97 95 95 95 92 86 84 79 72 65 58 53 50 47 44 40 36 33 31 28
288 308 291 248 265 354 300 89 301 259 85 78 77 110 125 164 91 43 61 63 45 70 9 38 33 336 250 257 178 88 44 41 83 84 88 106 129 76 61 356 347 122 162 120 130 135 131 114 137 142 146 146 142 139 134 129 127 125 122 122 116 113 111 106 103 97 93 92 91 86 78 81 80 83 93 100 99 95 96 93 87 85 82 77 79 74 65 57 51 46 43 42 39 33 30 28 28
305 308 310 275 228 191 296 212 303 256 125 93 49 111 249 65 61 63 54 52 63 59 43 108 321 35 318 164 50 66 87 42 42 96 90 131 284 25 20 354 341 282 143 125 137 140 133 125 142 147 149 146 147 140 137 131 128 127 127 123 119 114 110 108 103 99 96 97 96 92 85 79 79 78 84 98 102 102 99 93 85 71 66 77 75 71 64 57 53 46 42 39 36 32 28 26 26
285 279 289 339 312 130 270 196 207 292 74 129 101 44 77 90 80 75 60 59 53 333 288 67 100 228 3 50 8 92 43 45 36 17 95 60 46 322 359 349 275 283 116 130 141 140 121 127 143 145 152 147 150 145 140 134 131 132 130 126 122 121 115 114 106 106 101 101 99 97 96 91 83 85 90 99 102 104 100 98 95 101 98 82 79 73 66 61 56 48 41 37 35 31 28 27 27
271 265 217 302 336 270 350 253 274 57 35 11 114 94 87 94 89 85 78 88 65 25 355 42 140 3 73 52 16 36 327 174 52 34 81 103 349 317 80 198 251 76 127 193 135 134 131 134 139 141 152 151 149 149 142 140 138 138 134 130 128 128 126 119 117 108 109 106 102 101 92 92 86 87 90 95 106 105 100 93 91 93 96 83 79 77 68 64 58 52 42 38 35 32 30 29 29
238 251 196 153 331 122 300 325 59 68 25 231 122 96 82 88 101 106 113 99 107 58 5 354 22 103 47 41 13 69 334 40 49 57 1 51 352 314 227 201 216 129 153 230 121 112 135 138 138 145 159 148 153 154 149 147 144 144 141 140 138 136 135 130 123 121 123 118 112 101 101 94 95 87 83 94 96 90 86 92 97 95 89 72 66 68 69 66 62 56 47 40 35 35 33 31 30
332 348 219 248 266 79 244 288 77 90 359 38 97 105 97 81 113 134 117 105 67 92 346 48 334 95 103 140 84 71 40 345 60 16 51 22 11 337 332 130 107 118 153 160 87 108 125 128 139 143 143 150 154 155 157 148 147 146 144 145 145 141 141 141 134 133 133 131 115 97 74 82 78 101 101 101 105 114 108 102 93 94 77 64 70 70 66 64 60 54 47 42 38 36 36 33 32
234 22 24 319 281 128 274 113 56 68 57 43 56 97 101 103 211 148 93 99 158 132 127 98 63 8 157 135 108 93 86 62 102 60 73 39 14 15 6 352 91 136 146 80 98 102 108 116 126 138 140 147 157 154 161 149 151 146 146 150 149 142 145 150 145 143 144 134 130 115 112 98 110 99 104 109 115 118 117 114 109 88 77 75 74 70 66 62 56 52 48 45 42 40 37 36 34
222 182 103 344 255 127 292 69 101 83 108 89 61 62 73 64 17 8 112 121 123 75 61 23 343 298 104 91 95 115 74 115 79 53 69 48 33 35 22 10 33 25 54 103 111 123 115 106 104 121 142 156 159 159 160 157 159 150 147 151 154 145 146 154 150 148 140 137 127 110 116 126 133 116 104 92 106 115 115 107 98 89 81 82 76 71 67 64 59 56 52 49 46 44 41 37 36
270 153 326 284 335 199 230 133 112 93 82 89 129 126 124 162 116 325 95 101 55 81 57 17 312 81 142 106 110 42 43 30 66 55 37 73 45 55 42 16 8 32 34 62 118 113 116 110 96 103 137 155 157 167 157 160 165 152 149 152 158 149 146 152 160 159 148 139 121 108 89 86 98 110 94 92 110 118 110 101 98 89 90 85 81 78 74 71 67 63 57 53 51 50 46 41 39
286 174 152 10 241 231 201 110 104 131 113 96 79 89 88 41 153 108 9 91 123 100 96 10 332 15 0 63 69 117 56 50 50 40 0 90 73 62 82 31 32 15 43 7 82 123 129 125 106 92 110 153 149 165 164 156 153 164 146 152 155 147 147 154 160 161 152 132 125 114 107 103 105 108 113 112 112 119 116 109 91 96 95 91 89 86 84 80 77 72 67 62 60 59 53 48 43
315 127 83 279 270 53 1 91 97 85 117 129 115 127 308 123 183 222 182 142 150 120 62 360 53 4 301 134 133 107 68 36 35 24 359 18 100 81 82 65 51 38 18 4 6 100 134 130 121 103 96 111 143 157 151 165 156 167 155 151 152 144 151 155 157 146 143 105 106 103 102 105 99 108 112 121 119 122 116 116 115 109 102 99 98 97 92 85 79 75 73 71 69 65 60 58 52
322 352 323 274 299 17 348 57 106 111 147 178 126 70 288 148 244 24 50 7 197 85 50 16 321 260 330 63 149 85 45 22 9 16 358 0 72 110 93 75 58 45 20 343 19 39 96 147 135 130 112 109 118 138 146 167 161 153 168 165 152 143 148 152 152 137 131 130 116 108 95 89 91 101 117 121 117 121 120 109 119 116 108 103 97 93 88 82 75 73 72 72 72 69 63 61 57
356 36 8 306 241 36 7 75 112 144 181 89 83 136 167 310 51 8 338 304 52 72 82 296 350 38 125 113 111 47 36 12 346 30 346 31 99 82 91 89 74 66 6 0 57 67 5 10 139 148 147 156 145 133 164 161 161 165 159 161 152 150 148 148 145 142 126 109 100 105 104 98 102 112 116 119 113 111 109 107 119 106 102 100 95 89 84 80 74 71 69 73 75 73 70 64 60
354 349 310 279 27 43 57 107 166 188 101 115 129 154 132 54 53 355 31 18 84 71 137 51 47 321 7 342 103 9 349 343 332 83 113 37 77 85 104 112 105 101 53 30 17 29 25 1 10 131 164 174 179 164 159 169 168 168 155 158 167 157 153 147 147 143 130 117 118 121 124 121 118 118 113 116 111 108 107 98 106 108 109 101 97 90 87 82 76 68 66 70 73 74 72 69 64
351 357 277 309 195 171 348 206 31 327 132 105 203 98 136 105 48 189 52 44 143 88 284 88 29 27 26 71 63 0 344 344 311 157 139 106 140 153 144 124 102 91 97 113 74 26 7 3 333 360 161 182 186 175 184 161 167 161 166 172 167 157 155 154 151 147 137 129 132 139 142 133 133 132 127 128 129 133 136 131 128 120 115 112 106 103 99 93 85 75 67 68 71 72 70 68 65
338 109 355 232 241 159 166 193 129 41 108 97 167 181 213 137 146 68 352 320 277 153 71 34 59 44 57 77 76 17 24 11 352 31 28 124 167 143 79 85 109 88 83 49 44 96 107 322 342 333 315 308 197 181 189 160 159 158 162 172 164 158 162 166 160 146 136 132 136 152 152 153 146 132 138 130 139 148 150 150 146 133 127 125 123 118 112 105 100 90 80 73 82 83 78 68 58
314 234 209 274 341 71 329 28 76 161 114 154 120 12 334 134 161 103 77 256 236 126 98 91 76 69 101 106 77 55 57 36 22 47 29 28 22 48 51 34 43 56 32 38 40 19 8 114 177 287 327 316 318 272 139 132 151 166 162 165 169 177 173 166 161 159 157 146 149 148 188 192 161 155 149 141 154 158 158 156 146 138 137 137 128 128 122 120 116 109 106 104 104 125 142 108 92
233 293 302 90 19 122 4 61 54 320 114 103 90 28 345 72 325 114 267 206 198 201 109 121 98 112 101 78 52 51 54 48 35 46 48 36 28 43 39 31 42 24 35 2 30 33 8 351 5 340 274 302 321 307 71 114 150 169 177 165 169 180 179 173 175 173 175 153 169 184 198 229 156 143 134 157 152 168 159 159 149 145 149 140 135 132 130 128 125 129 130 142 127 178 122 89 100
265 68 342 42 67 69 38 58 87 35 74 139 128 79 303 80 330 6 222 324 293 22 135 135 120 113 81 75 52 50 51 55 46 46 51 40 37 31 34 30 28 30 25 350 19 21 22 359 346 333 334 302 337 320 313 149 152 179 184 167 177 179 175 184 195 195 191 166 173 197 217 229 120 124 138 141 138 142 144 164 165 154 148 138 131 120 119 127 136 141 171 147 164 98 62 41 63
19 271 23 76 23 114 61 74 72 52 10 47 50 78 275 139 69 359 325 324 267 100 36 43 93 85 81 79 59 49 51 50 46 44 49 47 42 34 23 34 23 22 1 10 18 2 15 349 349 332 331 319 297 301 304 247 211 173 167 158 161 169 189 175 201 178 155 126 149 107 342 354 82 118 139 145 153 148 153 159 162 158 130 137 138 129 126 148 152 163 179 299 58 57 55 34 35
318 82 125 100 306 86 89 75 57 73 27 356 76 278 306 50 261 209 265 230 128 80 50 67 71 68 72 61 75 62 56 53 47 39 45 46 41 33 18 20 19 23 13 28 1 351 2 336 338 322 306 304 273 264 281 294 20 42 138 137 140 139 147 124 94 45 37 50 45 64 18 44 321 99 141 163 162 155 155 164 166 174 164 153 174 144 142 178 225 141 98 74 66 58 72 62 41
325 99 66 47 53 69 113 107 65 317 130 247 204 276 80 247 295 225 214 281 122 74 91 88 78 84 95 86 71 67 61 59 54 49 47 45 43 36 16 18 8 21 16 15 9 348 352 349 314 273 265 283 281 221 274 345 28 1 49 45 99 133 131 125 108 75 51 81 64 57 102 186 153 145 328 204 42 106 149 169 169 193 157 138 151 115 124 126 82 78 81 92 96 87 75 98 91
208 301 137 89 29 37 133 109 128 208 274 219 271 64 277 279 256 107 150 102 101 107 110 97 101 104 89 81 71 79 71 59 70 71 57 59 46 53 16 20 13 29 11 12 9 356 360 326 314 288 209 249 271 212 230 217 163 62 47 39 39 27 48 43 48 73 56 48 35 30 6 25 44 31 307 111 133 179 167 156 117 81 92 102 61 87 98 92 91 104 116 135 122 115 98 80 84
245 263 62 91 14 237 106 128 173 203 216 261 84 257 245 221 245 111 128 126 127 120 121 109 118 99 86 76 77 80 76 56 49 68 87 62 48 63 42 26 17 24 18 16 6 4 342 325 309 313 180 246 255 170 217 179 76 62 53 51 46 52 60 62 61 59 53 52 43 31 23 17 21 40 19 35 26 66 43 68 86 40 58 74 134 94 113 136 147 84 75 60 72 80 64 23 61
347 53 287 115 219 173 171 173 190 191 211 199 212 241 248 245 82 253 122 117 120 123 110 129 121 112 99 88 81 76 78 67 55 49 66 70 42 48 39 31 8 20 19 9 2 352 332 315 329 337 322 238 252 111 31 48 61 65 59 59 56 57 60 64 61 57 50 54 47 42 33 20 36 30 32 46 64 47 81 75 86 95 84 73 88 97 91 86 81 84 80 62 82 76 66 13 21
267 357 349 313 285 299 164 215 226 199 206 161 203 226 255 117 116 228 110 132 133 140 131 132 137 104 99 102 73 63 70 61 46 40 54 61 44 39 45 22 10 7 11 2 357 344 319 326 348 351 337 37 59 69 68 63 63 68 65 67 61 55 53 63 59 56 47 44 39 36 37 33 37 29 30 42 46 30 49 41 40 49 48 30 37 68 60 67 64 57 45 20 48 83 101 61 14
342 25 306 270 252 237 241 209 235 170 217 185 191 245 177 179 120 237 146 142 151 143 140 148 133 124 109 99 91 63 66 48 53 39 40 32 29 23 39 21 5 357 6 357 348 323 334 351 9 1 11 49 59 67 75 72 66 72 69 68 64 62 59 63 59 58 53 49 40 33 29 40 42 40 31 32 47 47 41 40 33 39 36 30 35 47 56 54 60 51 34 16 359 43 50 65 12
10 316 296 287 277 236 207 214 210 173 244 140 171 267 219 173 221 113 129 147 160 146 145 147 128 117 112 105 99 79 62 68 44 51 41 45 45 26 40 36 9 350 9 350 341 341 1 355 15 21 33 52 62 64 71 76 69 66 68 63 67 65 62 61 59 55 58 49 40 36 38 37 42 49 46 46 48 50 52 48 39 32 28 27 27 26 37 41 58 65 37 322 358 7 351 74 317
307 252 233 295 270 258 229 185 129 144 153 175 118 275 238 204 129 130 131 153 158 144 152 150 136 136 142 129 114 97 96 84 76 70 65 51 58 32 38 33 14 12 352 348 343 0 358 5 27 36 45 59 64 63 73 78 75 71 68 65 60 64 64 63 56 50 51 52 43 31 30 37 42 39 49 55 58 56 52 48 39 29 18 28 38 35 37 28 29 29 19 2 343 341 16 36 18
242 292 163 235 336 275 43 126 147 156 145 169 190 209 331 115 129 140 164 148 167 162 159 158 148 139 138 130 127 123 105 90 94 94 90 75 61 63 40 32 26 15 2 359 359 353 14 29 37 47 46 63 67 60 71 63 68 73 66 64 63 60 64 64 58 55 52 53 49 42 37 36 37 36 35 47 56 56 55 51 43 35 29 36 46 39 37 31 40 38 25 25 2 16 26 32 25
217 298 250 222 197 254 232 134 164 170 249 236 162 279 247 166 157 156 171 161 178 177 159 155 155 154 150 155 143 132 125 119 105 84 79 83 68 71 55 35 29 21 11 359 359 358 37 35 48 65 50 63 66 65 70 72 75 76 72 70 70 62 65 64 62 61 61 55 55 53 49 47 43 39 41 44 57 54 59 57 51 41 38 45 45 41 42 29 26 52 36 30 26 28 24 19 14
200 180 275 292 209 208 163 192 198 86 128 208 182 244 77 119 150 165 162 177 189 191 164 156 167 164 153 152 152 128 131 124 106 86 60 72 64 59 55 39 36 25 14 9 5 16 43 47 44 63 68 64 72 81 79 73 73 75 71 66 65 66 63 62 60 59 58 57 53 57 51 55 55 51 48 48 57 54 56 55 41 37 27 42 46 38 39 29 29 48 51 39 40 32 26 12 356
238 166 221 219 226 236 225 59 250 165 176 179 226 243 260 132 162 169 182 183 183 212 170 169 165 159 162 145 147 154 148 136 103 79 73 64 67 69 72 56 34 36 19 19 20 32 56 73 58 60 73 73 70 72 77 79 76 76 74 71 67 65 61 61 59 55 52 50 49 49 41 44 54 60 56 52 58 54 55 52 45 37 33 35 39 37 30 19 31 43 64 53 45 31 18 9 353
217 189 210 263 251 234 233 178 193 164 217 255 193 222 253 164 172 182 183 189 187 197 184 167 160 165 150 158 162 153 131 115 101 98 89 74 73 71 69 56 43 21 37 26 41 45 43 62 80 72 76 85 86 83 85 86 85 82 79 76 69 65 63 59 58 57 50 48 48 44 40 40 35 37 48 49 57 54 53 52 48 40 38 38 41 38 31 23 19 25 54 56 49 39 23 4 338
278 306 340 329 342 313 328 45 152 167 181 228 236 242 244 183 179 172 189 196 193 205 172 152 164 156 160 169 154 143 135 104 102 103 79 78 82 71 75 71 55 22 52 55 47 61 58 55 73 80 74 74 74 77 77 81 82 79 82 75 69 62 61 60 55 56 51 52 48 47 43 42 38 37 36 41 48 48 48 46 51 45 41 42 42 40 30 25 21 15 31 64 53 28 20 6 357
276 325 294 276 275 267 299 140 129 283 234 221 237 247 254 265 177 189 185 180 207 208 169 162 166 162 166 168 158 148 136 124 119 112 105 118 99 93 90 97 113 79 78 67 62 56 40 55 60 64 55 49 73 86 77 77 82 86 73 68 76 67 64 66 61 54 54 51 49 50 47 45 44 43 39 42 48 50 50 49 50 46 43 45 45 42 33 30 26 29 18 58 72 43 24 13 5
267 275 287 277 254 269 265 209 166 108 137 257 247 269 263 255 247 172 165 178 203 204 179 180 176 171 167 163 149 151 116 122 133 130 133 103 111 116 107 78 79 94 78 81 73 72 62 54 63 70 66 63 59 59 69 66 59 72 92 80 85 74 69 65 66 54 56 54 51 51 51 49 50 49 44 46 50 51 52 49 48 46 44 44 47 43 39 34 31 31 27 19 42 65 46 21 10
242 226 252 267 255 263 276 96 157 116 93 262 251 259 262 261 253 163 178 187 201 203 188 182 170 170 163 162 152 144 129 143 159 137 130 119 118 110 104 107 85 89 87 89 84 82 69 63 65 65 61 66 61 63 77 86 85 82 90 95 89 88 68 74 76 74 65 63 57 53 52 52 50 50 48 47 50 47 49 50 46 45 47 43 45 40 36 37 30 30 28 32 16 29 54 30 27
275 252 218 239 267 285 276 159 140 213 187 282 343 311 279 282 280 179 192 187 189 153 146 143 158 167 163 169 162 151 155 149 156 153 154 151 144 131 123 110 117 105 91 88 97 103 95 85 85 81 78 77 79 74 86 89 93 93 85 91 86 86 94 79 77 69 64 62 57 53 51 52 52 54 50 50 52 49 48 49 46 45 43 44 51 51 41 37 31 29 26 27 30 42 22 21 27
210 222 239 243 218 230 219 228 227 150 253 245 287 282 265 237 241 213 206 168 102 130 100 85 28 92 121 122 136 158 158 155 153 155 146 149 151 144 130 129 115 98 90 78 95 95 99 97 96 97 95 95 96 98 95 101 102 97 98 96 88 87 72 70 72 62 59 62 64 50 47 47 49 51 48 49 51 51 49 49 51 49 49 40 45 51 46 37 33 30 29 30 31 44 33 22 13
250 226 211 226 235 254 258 233 114 317 296 193 174 317 255 211 223 214 150 73 186 143 158 191 170 146 118 135 146 136 142 150 150 154 158 157 142 125 126 135 118 106 90 69 70 92 98 98 101 102 105 109 115 112 115 113 106 113 111 95 93 88 79 70 70 80 72 64 68 68 56 52 54 56 52 52 53 52 52 49 51 52 50 44 42 46 46 40 31 29 22 34 29 23 56 38 30
233 265 219 204 218 250 294 295 12 288 233 320 144 199 276 358 322 185 177 190 200 160 202 201 182 185 174 172 170 161 148 145 145 143 147 140 143 145 140 134 123 107 104 100 86 85 85 87 88 87 86 80 88 115 117 92 86 87 89 92 99 106 108 87 91 84 88 87 81 71 67 57 54 58 53 52 51 52 53 49 50 51 52 52 46 49 47 42 35 31 20 29 33 28 30 46 36
250 270 359 89 148 200 229 249 233 244 334 195 185 184 275 286 251 149 153 169 196 207 213 208 195 187 184 182 176 165 164 158 146 150 153 149 150 151 144 131 120 120 116 88 82 85 93 98 98 95 83 77 70 79 89 95 98 97 99 101 101 101 102 112 104 102 94 94 88 80 74 65 58 58 59 52 51 51 52 51 49 50 50 45 47 51 50 43 42 34 31 28 29 36 36 42 27
187 269 106 92 130 218 243 224 247 256 21 261 167 206 309 248 222 142 154 161 205 222 212 209 199 185 181 182 170 166 165 164 161 159 162 157 159 146 135 120 118 113 107 105 107 107 100 99 98 92 87 83 75 81 88 91 99 103 107 113 108 101 104 107 107 99 100 96 94 88 82 78 66 58 57 60 53 52 52 53 50 50 48 43 41 43 43 43 44 43 34 30 27 25 34 34 40
190 141 64 84 81 49 237 189 265 285 237 243 176 184 227 269 198 147 189 211 216 221 208 202 194 183 177 177 164 160 157 158 161 158 147 144 136 132 128 120 106 113 118 114 112 107 107 104 101 100 97 96 96 95 100 101 104 111 116 120 117 119 118 110 107 104 100 96 91 88 82 77 73 63 53 52 55 53 55 54 53 50 49 46 43 38 38 41 38 39 40 39 33 33 22 34 33
148 131 93 55 79 171 32 280 147 329 247 231 185 206 193 283 185 187 170 217 210 201 177 178 177 175 176 174 162 160 157 157 156 151 144 134 123 121 126 124 122 114 123 122 116 116 119 113 113 105 107 104 103 105 104 106 110 119 122 125 123 125 125 124 120 113 107 99 97 91 86 82 77 70 58 50 53 50 50 52 56 54 51 50 47 41 35 38 42 39 38 40 38 36 25 33 26
133 135 125 111 316 63 11 276 198 222 262 185 196 208 198 229 268 186 207 210 198 180 182 173 177 181 175 169 163 158 156 156 150 144 141 134 132 138 127 126 135 138 124 123 127 124 121 123 118 113 110 110 109 109 107 109 115 118 118 120 122 124 126 126 124 122 123 115 112 106 98 86 74 71 61 57 50 48 54 54 53 56 52 48 47 46 38 32 43 45 38 44 40 32 26 38 31
163 120 111 123 227 85 258 146 223 210 250 306 196 189 235 237 231 269 28 253 162 177 173 172 175 174 168 164 158 155 154 154 152 148 145 148 150 153 143 143 140 148 147 142 141 135 129 127 128 123 122 120 115 115 114 116 117 120 121 118 115 114 114 117 117 112 116 112 110 105 98 93 81 73 65 67 59 59 61 58 55 53 49 45 43 43 38 32 31 53 44 42 43 31 22 24 43
174 162 164 150 201 213 243 199 233 263 253 269 193 14 252 6 287 221 228 57 12 13 110 165 167 165 164 156 152 150 155 160 156 152 152 156 154 154 147 148 150 150 150 148 145 142 140 135 134 126 128 125 122 119 119 116 111 110 107 108 109 111 110 108 108 109 109 106 106 104 105 106 104 98 89 78 76 76 65 66 66 60 56 53 45 38 39 31 29 48 46 40 40 33 14 17 26
201 183 172 187 181 180 229 193 220 227 222 321 269 99 234 119 241 347 38 52 33 5 64 102 109 122 129 132 135 140 154 162 159 159 159 159 156 156 151 152 155 153 153 150 148 148 143 139 137 133 130 129 124 122 118 114 112 107 106 105 106 107 108 105 103 104 107 107 104 104 101 98 99 98 91 87 71 71 80 75 66 63 58 55 51 44 34 28 21 39 39 39 29 30 8 7 10
212 189 196 227 217 104 241 202 332 320 21 294 256 200 205 190 346 133 70 48 32 23 96 113 119 128 132 141 154 162 165 165 161 158 156 155 154 155 149 155 158 155 154 151 153 152 147 146 141 138 136 132 127 123 120 120 116 112 108 109 108 107 107 104 101 98 99 102 106 107 106 103 101 100 90 88 80 76 76 83 74 67 62 56 54 50 39 30 15 39 32 26 37 8 6 352 338
202 150 212 201 26 230 281 336 107 117 339 250 147 284 297 304 274 141 154 91 41 9 126 127 134 140 145 157 165 168 168 166 163 162 161 155 151 156 156 157 157 155 155 160 161 159 155 151 147 139 132 128 127 128 125 119 116 113 112 112 115 114 114 117 118 113 110 101 100 99 101 105 104 107 114 107 101 89 80 78 84 79 66 64 60 51 40 29 15 34 29 28 47 7 359 332 334
105 197 216 85 78 75 153 250 54 202 244 262 151 211 231 144 263 151 146 150 182 200 173 135 136 143 162 172 174 174 172 167 156 149 153 156 155 156 158 159 160 159 156 157 161 161 155 157 152 141 140 138 137 131 126 127 126 124 125 120 112 114 117 116 116 114 109 111 106 103 105 107 118 121 115 111 99 92 83 79 77 78 74 66 66 57 43 27 20 16 17 18 67 40 353 331 326
133 176 306 143 240 235 213 90 247 229 232 262 230 208 230 192 220 129 200 193 191 186 188 155 158 171 178 174 174 170 157 153 162 163 163 165 164 165 166 163 157 157 157 157 159 155 154 155 150 146 145 145 140 134 129 126 128 128 125 122 121 118 117 115 114 111 111 111 113 117 121 122 109 105 99 96 93 87 83 85 85 73 76 75 60 59 50 27 11 29 8 23 7 22 348 322 305
63 316 329 263 85 234 151 198 358 144 255 289 275 133 249 189 213 181 195 199 183 170 180 195 181 179 178 174 174 173 172 172 170 170 171 169 166 167 168 166 166 164 163 163 160 157 159 155 148 145 139 137 134 135 137 136 133 126 122 115 111 113 112 113 111 110 110 112 117 117 113 105 110 103 98 96 99 98 94 90 88 83 70 72 69 43 47 24 8 23 18 8 338 354 327 313 304
216 178 242 185 190 322 98 314 208 189 230 233 277 277 264 233 198 179 194 190 180 174 188 189 183 182 183 177 176 178 177 174 175 173 171 168 165 166 167 164 159 155 158 158 163 166 162 153 154 154 150 148 144 143 139 137 129 127 124 122 122 119 114 108 105 107 112 113 108 102 104 115 103 101 107 102 100 102 101 105 92 92 87 81 75 59 10 36 20 10 352 335 321 324 314 302 311
192 185 200 191 170 183 186 249 143 221 218 243 193 256 268 261 357 247 196 187 174 187 179 177 180 180 179 178 179 180 177 179 174 171 166 165 165 165 161 155 155 158 165 165 166 164 164 163 161 154 152 153 150 147 142 137 130 130 128 126 123 117 112 109 110 107 107 106 105 111 124 106 108 112 103 108 106 105 101 96 103 97 100 92 78 94 24 53 11 0 333 325 322 319 310 300 309